NOZ277 ENCN-ENGM

Flight info

Callsign NOZ277
Flight time 0h 30m
Altitude 31000
Route VAVET DCT PIPEX M609 RIPAM
Aircraft B738/M-SDE2E3GHIJ1LRWXY/LB1

Departure

Time 2026-05-06 14:59
Airport Kristiansand Airport (ENCN)

Arrival

Time 2026-05-06 15:30
Airport Oslo-Gardermoen International Airport (ENGM)
Time Latitude Longitude Altitude Speed Heading
2026-05-06 14:34 58.20246 8.07555 57 ft 0 kts 302°
2026-05-06 14:51 58.20238 8.07580 49 ft 4 kts 313°
2026-05-06 14:51 58.20217 8.07609 50 ft 4 kts 346°
2026-05-06 14:51 58.20194 8.07607 53 ft 2 kts 30°
2026-05-06 14:52 58.20192 8.07605 52 ft 1 kts 31°
2026-05-06 14:54 58.20209 8.07624 51 ft 6 kts 31°
2026-05-06 14:54 58.20264 8.07688 52 ft 12 kts 32°
2026-05-06 14:54 58.20328 8.07807 57 ft 14 kts 51°
2026-05-06 14:55 58.20400 8.07979 57 ft 19 kts 52°
2026-05-06 14:55 58.20468 8.08144 55 ft 6 kts 52°
2026-05-06 14:55 58.20474 8.08242 52 ft 9 kts 109°
2026-05-06 14:55 58.20437 8.08352 51 ft 11 kts 125°
2026-05-06 14:56 58.20408 8.08480 59 ft 11 kts 83°
2026-05-06 14:56 58.20463 8.08591 57 ft 13 kts 36°
2026-05-06 14:56 58.20547 8.08706 57 ft 17 kts 35°
2026-05-06 14:56 58.20643 8.08833 57 ft 17 kts 35°
2026-05-06 14:57 58.20744 8.08966 59 ft 18 kts 34°
2026-05-06 14:57 58.20849 8.09103 57 ft 19 kts 34°
2026-05-06 14:57 58.20963 8.09255 57 ft 21 kts 36°
2026-05-06 14:57 58.21083 8.09416 52 ft 16 kts 36°
2026-05-06 14:58 58.21144 8.09521 53 ft 7 kts 348°
2026-05-06 14:58 58.21155 8.09478 55 ft 3 kts 264°
2026-05-06 14:58 58.21137 8.09447 51 ft 6 kts 200°
2026-05-06 14:58 58.21088 8.09418 54 ft 0 kts 212°
2026-05-06 14:59 58.21001 8.09305 54 ft 49 kts 215°
2026-05-06 14:59 58.20514 8.08664 51 ft 119 kts 215°
2026-05-06 14:59 58.19697 8.07605 379 ft 146 kts 213°
2026-05-06 14:59 58.18851 8.06588 1264 ft 147 kts 211°
2026-05-06 15:00 58.17869 8.05589 1695 ft 176 kts 206°
2026-05-06 15:00 58.16638 8.04572 1950 ft 206 kts 204°
2026-05-06 15:00 58.15256 8.03518 2423 ft 220 kts 199°
2026-05-06 15:00 58.13737 8.02721 2981 ft 232 kts 197°
2026-05-06 15:01 58.12118 8.02142 3399 ft 254 kts 176°
2026-05-06 15:01 58.10462 8.03406 4045 ft 267 kts 139°
2026-05-06 15:01 58.09442 8.06333 4750 ft 272 kts 103°
2026-05-06 15:01 58.09336 8.09842 5638 ft 268 kts 77°
2026-05-06 15:02 58.10063 8.13042 6488 ft 267 kts 49°
2026-05-06 15:02 58.11417 8.15440 7234 ft 270 kts 34°
2026-05-06 15:02 58.12984 8.17487 7936 ft 277 kts 31°
2026-05-06 15:02 58.14622 8.19486 8661 ft 284 kts 30°
2026-05-06 15:03 58.16301 8.21519 9430 ft 290 kts 31°
2026-05-06 15:03 58.17994 8.23586 10123 ft 296 kts 31°
2026-05-06 15:03 58.19783 8.25790 10628 ft 310 kts 31°
2026-05-06 15:03 58.21584 8.28033 11274 ft 317 kts 30°
2026-05-06 15:04 58.23435 8.30356 12017 ft 322 kts 30°
2026-05-06 15:04 58.25311 8.32724 12803 ft 326 kts 30°
2026-05-06 15:04 58.27213 8.35135 13571 ft 332 kts 30°
2026-05-06 15:04 58.29144 8.37593 14296 ft 336 kts 30°
2026-05-06 15:05 58.31101 8.40089 15030 ft 341 kts 30°
2026-05-06 15:05 58.33084 8.42626 15760 ft 346 kts 30°
2026-05-06 15:05 58.35093 8.45200 16495 ft 350 kts 30°
2026-05-06 15:05 58.37095 8.47771 17255 ft 354 kts 30°
2026-05-06 15:06 58.39155 8.50419 17970 ft 359 kts 30°
2026-05-06 15:06 58.41241 8.53103 18642 ft 364 kts 30°
2026-05-06 15:06 58.43357 8.55831 19255 ft 370 kts 30°
2026-05-06 15:06 58.45501 8.58600 19866 ft 375 kts 30°
2026-05-06 15:07 58.47677 8.61415 20487 ft 380 kts 30°
2026-05-06 15:07 58.49878 8.64267 21098 ft 385 kts 30°
2026-05-06 15:07 58.52113 8.67166 21685 ft 391 kts 30°
2026-05-06 15:07 58.54375 8.70105 22265 ft 396 kts 30°
2026-05-06 15:08 58.56634 8.73045 22854 ft 400 kts 30°
2026-05-06 15:08 58.58951 8.76066 23427 ft 406 kts 30°
2026-05-06 15:08 58.61294 8.79127 23928 ft 410 kts 30°
2026-05-06 15:08 58.63654 8.82216 24495 ft 411 kts 30°
2026-05-06 15:09 58.66014 8.85312 25093 ft 411 kts 30°
2026-05-06 15:09 58.68375 8.88413 25710 ft 411 kts 30°
2026-05-06 15:09 58.70735 8.91519 26290 ft 411 kts 30°
2026-05-06 15:09 58.73101 8.94635 26884 ft 413 kts 30°
2026-05-06 15:10 58.75473 8.97763 27399 ft 414 kts 30°
2026-05-06 15:10 58.77796 9.00833 27964 ft 415 kts 30°
2026-05-06 15:10 58.80162 9.03964 28543 ft 415 kts 30°
2026-05-06 15:10 58.82544 9.07122 29099 ft 415 kts 31°
2026-05-06 15:11 58.84924 9.10282 29626 ft 416 kts 31°
2026-05-06 15:11 58.87309 9.13455 30127 ft 416 kts 31°
2026-05-06 15:11 58.89692 9.16631 30614 ft 415 kts 31°
2026-05-06 15:11 58.92068 9.19803 30981 ft 417 kts 31°
2026-05-06 15:12 58.94471 9.23013 30930 ft 420 kts 31°
2026-05-06 15:12 58.99202 9.29360 30989 ft 413 kts 30°
2026-05-06 15:13 59.03936 9.35726 30968 ft 419 kts 31°
2026-05-06 15:13 59.06365 9.38993 30961 ft 430 kts 31°
2026-05-06 15:13 59.08871 9.42369 30718 ft 448 kts 31°
2026-05-06 15:13 59.11495 9.45905 30332 ft 468 kts 30°
2026-05-06 15:14 59.14305 9.49083 29643 ft 466 kts 20°
2026-05-06 15:14 59.17245 9.51646 29095 ft 461 kts 18°
2026-05-06 15:14 59.20197 9.54064 28566 ft 459 kts 17°
2026-05-06 15:14 59.23103 9.56425 28017 ft 458 kts 17°
2026-05-06 15:15 59.26032 9.58838 27516 ft 457 kts 18°
2026-05-06 15:15 59.28966 9.61299 26905 ft 459 kts 18°
2026-05-06 15:15 59.31896 9.63793 26295 ft 464 kts 18°
2026-05-06 15:15 59.34876 9.66350 25703 ft 467 kts 18°
2026-05-06 15:16 59.37835 9.68918 25246 ft 464 kts 19°
2026-05-06 15:16 59.40783 9.71486 24753 ft 463 kts 19°
2026-05-06 15:16 59.43716 9.74045 24244 ft 459 kts 19°
2026-05-06 15:16 59.46625 9.76586 23737 ft 455 kts 19°
2026-05-06 15:17 59.49504 9.79098 23197 ft 450 kts 18°
2026-05-06 15:17 59.52240 9.81805 22671 ft 450 kts 28°
2026-05-06 15:17 59.54802 9.85365 22093 ft 448 kts 32°
2026-05-06 15:17 59.57299 9.89009 21550 ft 444 kts 32°
2026-05-06 15:18 59.59762 9.92620 21002 ft 439 kts 32°
2026-05-06 15:18 59.62202 9.96181 20493 ft 433 kts 32°
2026-05-06 15:18 59.64618 9.99683 19990 ft 428 kts 32°
2026-05-06 15:18 59.66886 10.02954 19536 ft 424 kts 32°
2026-05-06 15:19 59.69264 10.06375 19040 ft 420 kts 31°
2026-05-06 15:19 59.71610 10.09748 18560 ft 415 kts 31°
2026-05-06 15:19 59.73903 10.13050 18081 ft 410 kts 31°
2026-05-06 15:19 59.76199 10.16359 17538 ft 407 kts 31°
2026-05-06 15:20 59.78478 10.19648 17006 ft 403 kts 31°
2026-05-06 15:20 59.80742 10.22925 16371 ft 402 kts 31°
2026-05-06 15:20 59.82988 10.26181 15872 ft 398 kts 31°
2026-05-06 15:20 59.85212 10.29408 15419 ft 394 kts 31°
2026-05-06 15:21 59.87413 10.32604 14936 ft 390 kts 31°
2026-05-06 15:21 59.89592 10.35781 14443 ft 387 kts 31°
2026-05-06 15:21 59.91753 10.38934 13977 ft 383 kts 32°
2026-05-06 15:21 59.93863 10.42020 13486 ft 380 kts 32°
2026-05-06 15:22 59.95984 10.45124 13006 ft 375 kts 32°
2026-05-06 15:22 59.98078 10.48195 12514 ft 371 kts 33°
2026-05-06 15:22 60.00128 10.51219 12111 ft 365 kts 33°
2026-05-06 15:22 60.02160 10.54207 11664 ft 361 kts 33°
2026-05-06 15:23 60.04170 10.57162 11237 ft 356 kts 34°
2026-05-06 15:23 60.06159 10.60091 10762 ft 354 kts 34°
2026-05-06 15:23 60.08123 10.62989 10350 ft 349 kts 35°
2026-05-06 15:23 60.10032 10.65815 9947 ft 343 kts 36°
2026-05-06 15:24 60.11940 10.68646 9468 ft 341 kts 36°
2026-05-06 15:24 60.13832 10.71456 9175 ft 332 kts 36°
2026-05-06 15:24 60.15649 10.74158 9080 ft 319 kts 36°
2026-05-06 15:24 60.17393 10.76757 8958 ft 307 kts 35°
2026-05-06 15:25 60.19081 10.79274 8822 ft 297 kts 35°
2026-05-06 15:25 60.20729 10.81734 8529 ft 293 kts 35°
2026-05-06 15:25 60.22365 10.84178 8155 ft 293 kts 35°
2026-05-06 15:25 60.24004 10.86630 7802 ft 292 kts 36°
2026-05-06 15:26 60.25596 10.89015 7525 ft 288 kts 35°
2026-05-06 15:26 60.27208 10.91431 7131 ft 289 kts 35°
2026-05-06 15:26 60.28825 10.93860 6728 ft 291 kts 36°
2026-05-06 15:26 60.30451 10.96305 6299 ft 293 kts 34°
2026-05-06 15:27 60.31948 10.99002 5806 ft 289 kts 53°
2026-05-06 15:27 60.32679 11.02466 5383 ft 284 kts 81°
2026-05-06 15:27 60.32597 11.06365 4949 ft 277 kts 106°
2026-05-06 15:27 60.31813 11.09892 4271 ft 279 kts 121°
2026-05-06 15:28 60.30637 11.12888 3525 ft 273 kts 144°
2026-05-06 15:28 60.28973 11.14226 2764 ft 250 kts 180°
2026-05-06 15:28 60.27382 11.13418 2002 ft 231 kts 217°
2026-05-06 15:28 60.26270 11.11393 1731 ft 201 kts 214°
2026-05-06 15:29 60.25042 11.10688 1505 ft 177 kts 192°
2026-05-06 15:29 60.23879 11.10359 1195 ft 161 kts 188°
2026-05-06 15:29 60.22835 11.09909 950 ft 147 kts 198°
2026-05-06 15:29 60.21901 11.09329 758 ft 134 kts 194°
2026-05-06 15:30 60.21018 11.08831 681 ft 125 kts 196°
2026-05-06 15:30 60.20334 11.08428 676 ft 73 kts 195°
2026-05-06 15:30 60.20058 11.08292 673 ft 27 kts 185°
2026-05-06 15:30 60.19927 11.08340 674 ft 15 kts 147°
2026-05-06 15:31 60.19888 11.08456 675 ft 9 kts 104°
2026-05-06 15:31 60.19874 11.08573 677 ft 9 kts 105°
2026-05-06 15:31 60.19857 11.08692 678 ft 9 kts 106°
2026-05-06 15:32 60.19798 11.09026 679 ft 13 kts 142°
2026-05-06 15:32 60.19730 11.09078 682 ft 10 kts 130°
2026-05-06 15:32 60.19707 11.09221 679 ft 12 kts 105°
2026-05-06 15:32 60.19683 11.09391 682 ft 14 kts 105°
2026-05-06 15:33 60.19663 11.09531 680 ft 4 kts 106°
2026-05-06 15:33 60.19643 11.09550 683 ft 3 kts 187°
2026-05-06 15:33 60.19618 11.09538 683 ft 4 kts 194°
2026-05-06 15:33 60.19583 11.09519 681 ft 6 kts 195°
2026-05-06 15:34 60.19554 11.09502 684 ft 4 kts 196°
2026-05-06 15:34 60.19551 11.09500 684 ft 0 kts 196°